Date String (YYYY-MM-DD hh:mm:ss) UTC,Instrument flags,Ambient pressure (hPa),Sample flow (lpm),Bypass flow (lpm),Sample temperature (°C),Ambient temperature (°C),ASC tube jacket temperature (°C),LED temperature (°C),Box temperature (°C),Sample RH (%),Span deviation,Mass concentration (μg/m³),Mass concentration (μg/m³),Mass concentration (μg/m³)
DateTimeUTC,F1_M11,P_M11,Q1_M11,Q2_M11,T1_M11,T2_M11,T3_M11,T4_M11,T5_M11,U1_M11,ZSPAN_M11,X0_M11,X2_M11,X1_M11
2022-12-16 22:00:00,,0823.9,5.00,0.00,21.4,21.7,00.0,30.2,23.3,04.1,0000.0,0003.42,0001.55,0001.36
2022-12-16 22:01:00,,0824.0,4.99,0.00,21.5,21.4,00.0,30.2,23.3,04.2,0000.0,0002.28,0001.53,0001.36
2022-12-16 22:02:00,,0824.0,5.04,0.00,21.5,20.9,00.0,30.3,23.2,04.2,0000.0,0002.14,0001.51,0001.35
2022-12-16 22:03:00,,0823.9,4.97,0.00,21.4,20.5,00.0,30.3,23.1,04.1,0000.0,0002.14,0001.51,0001.34
2022-12-16 22:04:00,,0824.0,4.97,0.00,21.4,20.2,00.0,30.3,23.0,04.1,0000.0,0002.14,0001.50,0001.34
2022-12-16 22:05:00,,0824.0,5.04,0.00,21.4,20.1,00.0,30.3,23.0,04.0,0000.0,0002.14,0001.51,0001.35
2022-12-16 22:06:00,,0824.0,4.97,0.00,21.3,19.9,00.0,30.3,22.9,04.1,0000.0,0002.08,0001.52,0001.34
2022-12-16 22:07:00,,0824.0,5.03,0.00,21.3,19.8,00.0,30.2,22.8,04.1,0000.0,0002.12,0001.55,0001.35
2022-12-16 22:08:00,,0824.0,4.97,0.00,21.3,20.3,00.0,30.2,22.9,04.1,0000.0,0002.15,0001.58,0001.36
2022-12-16 22:09:00,,0823.9,5.04,0.00,21.4,21.5,00.0,30.2,23.2,04.1,0000.0,0002.31,0001.63,0001.36
2022-12-16 22:10:00,,0824.0,4.96,0.00,21.5,22.0,00.0,30.2,23.5,04.0,0000.0,0002.30,0001.63,0001.36
2022-12-16 22:11:00,,0824.0,5.03,0.00,21.5,21.5,00.0,30.3,23.4,03.9,0000.0,0002.22,0001.61,0001.37
2022-12-16 22:12:00,,0824.0,4.97,0.00,21.5,21.0,00.0,30.3,23.2,04.0,0000.0,0002.30,0001.62,0001.38
2022-12-16 22:13:00,,0824.0,5.04,0.00,21.5,20.6,00.0,30.3,23.1,03.9,0000.0,0002.75,0001.66,0001.39
2022-12-16 22:14:00,,0823.9,4.98,0.00,21.4,20.3,00.0,30.3,23.0,04.0,0000.0,0003.03,0001.69,0001.40
2022-12-16 22:15:00,,0824.0,4.97,0.00,21.4,20.1,00.0,30.3,23.0,04.1,0000.0,0003.06,0001.70,0001.40
2022-12-16 22:16:00,,0823.9,5.04,0.00,21.4,20.0,00.0,30.3,23.0,04.1,0000.0,0003.10,0001.71,0001.39
2022-12-16 22:17:00,,0824.0,4.97,0.00,21.4,19.8,00.0,30.3,23.0,04.0,0000.0,0003.15,0001.72,0001.40
2022-12-16 22:18:00,,0824.0,5.03,0.00,21.3,19.8,00.0,30.3,22.9,04.0,0000.0,0003.11,0001.70,0001.39
2022-12-16 22:19:00,,0824.0,4.98,0.00,21.4,20.7,00.0,30.2,23.1,04.0,0000.0,0003.21,0001.71,0001.40
2022-12-16 22:20:00,,0823.9,5.03,0.00,21.5,21.8,00.0,30.2,23.4,04.0,0000.0,0003.36,0001.66,0001.39
2022-12-16 22:21:00,,0823.9,4.95,0.00,21.6,21.8,00.0,30.3,23.5,03.9,0000.0,0003.34,0001.66,0001.39
2022-12-16 22:22:00,,0824.0,5.05,0.00,21.6,21.2,00.0,30.3,23.4,03.9,0000.0,0003.35,0001.66,0001.38
2022-12-16 22:23:00,,0824.0,4.98,0.00,21.5,20.7,00.0,30.4,23.2,03.9,0000.0,0003.32,0001.69,0001.38
2022-12-16 22:24:00,,0823.9,4.97,0.00,21.5,20.4,00.0,30.4,23.1,04.0,0000.0,0002.91,0001.66,0001.38
2022-12-16 22:25:00,,0823.9,5.04,0.00,21.4,20.1,00.0,30.4,23.0,04.0,0000.0,0002.70,0001.65,0001.38
2022-12-16 22:26:00,,0823.8,4.96,0.00,21.4,19.9,00.0,30.3,22.9,04.0,0000.0,0002.77,0001.68,0001.38
2022-12-16 22:27:00,,0823.8,5.04,0.00,21.3,19.7,00.0,30.3,22.9,04.0,0000.0,0003.01,0001.67,0001.39
2022-12-16 22:28:00,,0823.8,4.96,0.00,21.3,19.6,00.0,30.3,22.8,04.0,0000.0,0003.31,0001.67,0001.39
2022-12-16 22:29:00,,0823.8,5.05,0.00,21.3,19.7,00.0,30.3,22.8,04.0,0000.0,0003.42,0001.71,0001.39
2022-12-16 22:30:00,,0823.8,4.98,0.00,21.4,20.9,00.0,30.2,23.1,04.0,0000.0,0003.34,0001.68,0001.38
2022-12-16 22:31:00,,0823.7,5.00,0.00,21.5,21.8,00.0,30.2,23.4,04.0,0000.0,0003.08,0001.70,0001.39
2022-12-16 22:32:00,,0823.7,4.99,0.00,21.5,21.5,00.0,30.3,23.4,04.0,0000.0,0003.32,0001.77,0001.39
2022-12-16 22:33:00,,0823.7,4.99,0.00,21.5,21.0,00.0,30.3,23.3,03.9,0000.0,0003.43,0001.80,0001.39
2022-12-16 22:34:00,,0823.7,5.04,0.00,21.5,20.6,00.0,30.3,23.1,03.9,0000.0,0003.68,0001.84,0001.40
2022-12-16 22:35:00,,0823.7,4.97,0.00,21.4,20.4,00.0,30.3,23.0,04.0,0000.0,0003.80,0001.86,0001.40
2022-12-16 22:36:00,,0823.7,5.04,0.00,21.4,20.1,00.0,30.3,23.0,04.0,0000.0,0003.80,0001.87,0001.40
2022-12-16 22:37:00,,0823.7,4.97,0.00,21.4,20.0,00.0,30.3,22.9,04.0,0000.0,0003.75,0001.86,0001.41
2022-12-16 22:38:00,,0823.7,5.00,0.00,21.3,19.9,00.0,30.3,22.9,04.0,0000.0,0003.66,0001.86,0001.41
2022-12-16 22:39:00,,0823.7,4.99,0.00,21.3,19.7,00.0,30.3,22.8,04.0,0000.0,0003.13,0001.86,0001.42
2022-12-16 22:40:00,,0823.8,5.01,0.00,21.2,19.4,00.0,30.3,22.6,04.0,0000.0,0003.08,0001.84,0001.42
2022-12-16 22:41:00,,0823.7,5.01,0.00,21.2,19.8,00.0,30.2,22.7,04.0,0000.0,0003.10,0001.86,0001.43
2022-12-16 22:42:00,,0823.8,4.99,0.00,21.3,20.9,00.0,30.2,23.0,04.0,0000.0,0003.19,0001.90,0001.45
2022-12-16 22:43:00,,0823.7,4.99,0.00,21.4,21.5,00.0,30.2,23.2,04.0,0000.0,0003.01,0001.83,0001.45
2022-12-16 22:44:00,,0823.7,4.98,0.00,21.4,21.0,00.0,30.2,23.2,04.0,0000.0,0002.81,0001.78,0001.45
2022-12-16 22:45:00,,0823.7,5.04,0.00,21.4,20.4,00.0,30.3,23.0,04.0,0000.0,0002.59,0001.72,0001.44
2022-12-16 22:46:00,,0823.8,4.96,0.00,21.3,19.9,00.0,30.2,22.8,04.1,0000.0,0002.29,0001.67,0001.44
2022-12-16 22:47:00,,0823.7,5.04,0.00,21.2,19.6,00.0,30.2,22.7,04.1,0000.0,0002.39,0001.69,0001.45
2022-12-16 22:48:00,,0823.7,4.96,0.00,21.2,19.3,00.0,30.2,22.6,04.1,0000.0,0002.40,0001.68,0001.43
2022-12-16 22:49:00,,0823.7,5.03,0.00,21.1,19.2,00.0,30.2,22.5,04.1,0000.0,0002.38,0001.67,0001.42
2022-12-16 22:50:00,,0823.7,4.97,0.00,21.0,19.0,00.0,30.2,22.5,04.1,0000.0,0002.42,0001.67,0001.42
2022-12-16 22:51:00,,0823.8,5.04,0.00,21.0,19.3,00.0,30.1,22.5,04.2,0000.0,0003.26,0001.65,0001.41
2022-12-16 22:52:00,,0823.7,4.98,0.00,21.1,20.6,00.0,30.0,22.8,04.1,0000.0,0003.68,0001.63,0001.38
2022-12-16 22:53:00,,0823.7,5.00,0.00,21.2,21.5,00.0,30.1,23.1,04.1,0000.0,0003.57,0001.57,0001.34
2022-12-16 22:54:00,,0823.8,4.99,0.00,21.3,21.0,00.0,30.1,23.0,04.1,0000.0,0003.62,0001.58,0001.33
2022-12-16 22:55:00,,0823.7,5.02,0.00,21.2,20.4,00.0,30.1,22.9,04.1,0000.0,0003.65,0001.59,0001.33
2022-12-16 22:56:00,,0823.8,4.97,0.00,21.1,19.8,00.0,30.1,22.7,04.2,0000.0,0003.72,0001.61,0001.32
2022-12-16 22:57:00,,0823.7,5.04,0.00,21.1,19.5,00.0,30.1,22.6,04.2,0000.0,0003.74,0001.61,0001.31
2022-12-16 22:58:00,,0823.7,4.96,0.00,21.0,19.2,00.0,30.1,22.5,04.2,0000.0,0003.73,0001.62,0001.31
2022-12-16 22:59:00,,0823.7,5.03,0.00,21.0,19.0,00.0,30.1,22.4,04.2,0000.0,0004.34,0001.64,0001.31
